Location: Newark
(13.8117°N, 3.6025°W)
Time: 18:35:40
(UTC+00:00)

Explorer 11/Cluster Stage 4 - Pass Details

Date: 31 August 2019
Orbit: 467 x 1259 km, 28.8° (Epoch: 15 October)

Event Time Altitude Azimuth Distance (km) Brightness Sun altitude
Rises 13:32:03 0° 295° (WNW) 4,151 10.5 70.4°
Reaches altitude 10° 13:34:56 10° 294° (WNW) 3,217 10.1 69.7°
Maximum altitude 13:43:13 79° 209° (SSW) 1,259 9.5 67.7°
Drops below altitude 10° 13:51:02 10° 123° (ESE) 3,042 9.5 65.9°
Sets 13:53:41 0° 122° (ESE) 3,916 10.0 65.2°
